Location: Champseau
(45.8333°N, 1.7667°E)
Time: 05:46:08
(UTC+00:00)

Cosmos 468 Rocket - Pass Details

Date: 18 April 2021
Orbit: 745 x 779 km, 74.0° (Epoch: 15 May)

Event Time Altitude Azimuth Distance (km) Brightness Sun altitude
Rises 21:36:27 0° 342° (NNW) 3,198 8.4 -25.4°
Reaches altitude 10° 21:38:53 10° 348° (NNW) 2,270 7.3 -25.6°
Enters shadow 21:43:44 50° 57° (ENE) 952 4.4 -26.1°
